Regional Weather Roundup
Issued by NWS Albany, NY

Home | Current Version | Previous Version | Text Only | Print | Product List | Glossary On
Versions: 1 2 3 4 5 6 7 8 9 10 11 12 13 14 15 16 17 18 19 20 21 22 23 24 25 26 27 28
000
ASUS41 KALY 290810
RWRALY

NEW YORK STATE HOURLY WEATHER ROUNDUP
NATIONAL WEATHER SERVICE ALBANY NY
400 AM EDT FRI APR 29 2016

NOTE: "FAIR" INDICATES FEW OR NO CLOUDS BELOW 12,000 FEET WITH NO
SIGNIFICANT WEATHER AND/OR NO OBSTRUCTIONS TO VISIBILITY.

NYZ032-033-038>043-046>054-057>066-NYZ062>081-082-084-290900-
EAST


CITY           SKY/WX    TMP DP  RH WIND       PRES   REMARKS
ALBANY         CLOUDY    39  19  44 N9        30.10R WCI  33
GLENS FALLS    CLOUDY    39  19  44 N9        30.11R WCI  33
POUGHKEEPSIE   CLOUDY    50  40  68 E3        30.05R
NEWBURGH       CLOUDY    46  41  81 CALM      30.06R
MONTGOMERY     CLOUDY    47  42  83 N5        30.04R
WHITE PLAINS   CLOUDY    46  39  76 E3        30.05R
ISLIP          CLOUDY    47  36  65 E6        30.06R
NEW YORK CITY  CLOUDY    50  34  54 E7        30.05R
CENTRAL PARK   CLOUDY    50  33  52 VRB5      30.08R
$$

NYZ005>009-017-018-044>046-055-056-290900-
CENTRAL


CITY           SKY/WX    TMP DP  RH WIND       PRES   REMARKS
FULTON         CLOUDY    40  25  55 N3        30.05S
SYRACUSE       CLOUDY    40  27  59 CALM      30.04S
ROME           CLOUDY    40  26  57 E6        30.07R
ELMIRA         CLOUDY    42  31  64 CALM      30.03R
BINGHAMTON     LGT RAIN  43  33  68 CALM      30.00R
MONTICELLO     CLOUDY    43  39  87 E3        30.03S
$$

NYZ026>034-041>043-087-290900-
NORTH


CITY           SKY/WX    TMP DP  RH WIND       PRES   REMARKS
WATERTOWN      CLOUDY    35  20  54 NE9       30.08R WCI  28
FORT DRUM      NOT AVBL
MASSENA        PTCLDY    31  17  56 NE7       30.16R WCI  24
SARANAC LAKE   CLEAR     27  13  55 NE3       30.06S
PLATTSBURGH    CLEAR     26  19  74 CALM      30.16R
$$

NYZ001>004-010>016-019>021-085-290900-
WEST


CITY           SKY/WX    TMP DP  RH WIND       PRES   REMARKS
NIAGARA FALLS  CLOUDY    43  24  47 E9        30.04S
BUFFALO        CLOUDY    43  24  47 NE10      30.03F
DUNKIRK        CLOUDY    43  31  62 NE9       30.01R
JAMESTOWN      CLOUDY    41  36  81 NE6       29.97R
WELLSVILLE     CLOUDY    38  31  76 E6        29.99F WCI  33
ROCHESTER      CLOUDY    42  25  50 NE7       30.06S
PENN YAN       CLOUDY    42  27  55 CALM      30.03F
$$

             KEY
       WCI = WIND CHILL INDEX
       VSB = VISIBILITY
       HX  = HEAT INDEX
$$




USA.gov is the U.S. government's official web portal to all federal, state and local government web resources and services.